Driggs, ID

11:11 AM MST on November 20, 2017 (GMT -0700)
Driggs

Weather History for KDIJ - January, 2014

Change the Weather History Date:

Thursday, January 30, 2014

  Actual Average (KJAC) Record (KJAC)
Temperature  
Mean Temperature 26 °F -  
Max Temperature 29 °F 24 °F 46 °F (1971)
Min Temperature 24 °F 0 °F -30 °F (1979)
Degree Days  
Heating Degree Days 38    
Moisture  
Dew Point 23 °F    
Average Humidity 84    
Maximum Humidity 100    
Minimum Humidity 74    
Precipitation  
Precipitation 0.01 in - - ()
Sea Level Pressure  
Sea Level Pressure 29.69 in    
Wind  
Wind Speed 11 mph (South)    
Max Wind Speed 20 mph    
Max Gust Speed -    
Visibility 6 miles    
Events Fog , Snow    
Averages and records for this station are not official NWS values.
T = Trace of Precipitation, MM = Missing Value Source: NWS Daily Summary

Daily Weather History Graph

Daily Weather History Graph

Search for Another Location

Airport or City:

Trip Planner

Search our weather history database for the weather conditions in past years. The results will help you decide how hot, cold, wet, or windy it might be!

Date:

Astronomy

Jan. 30, 2014 Rise Set
Actual Time 7:43 AM MST 5:32 PM MST
Civil Twilight 7:12 AM MST 6:03 PM MST
Nautical Twilight 6:38 AM MST 6:38 PM MST
Astronomical Twilight 6:04 AM MST 7:11 PM MST
Moon 7:10 AM MST (1/30) 5:51 PM MST (1/30)
Length of Visible Light 10h 50m
Length of Day
9h 49m
Waning Crescent, 0% of the Moon is Illuminated
Jan 30
Waning Crescent
Jan 30
New
Feb 6
First Quarter
Feb 14
Full
Feb 22
Last Quarter

Hourly Weather History & Observations

Time (MST) Temp. Windchill Dew Point Humidity Pressure Visibility Wind Dir Wind Speed Gust Speed Precip Events Conditions
12:56 AM 26.1 °F 16.8 °F 22.1 °F 85% 29.66 in 10.0 mi SE 9.2 mph - N/A   Mostly Cloudy
1:56 AM 26.1 °F 14.5 °F 22.1 °F 85% 29.65 in 10.0 mi South 13.8 mph - N/A   Clear
2:56 AM 28.0 °F 16.5 °F 22.1 °F 78% 29.64 in 10.0 mi SSE 15.0 mph - N/A   Mostly Cloudy
3:22 AM 28.4 °F 18.5 °F 21.2 °F 74% 29.66 in 10.0 mi SSE 11.5 mph - N/A   Overcast
3:56 AM 28.0 °F 17.0 °F 23.0 °F 81% 29.62 in 10.0 mi SE 13.8 mph - N/A   Overcast
4:43 AM 28.4 °F 16.6 °F 23.0 °F 80% 29.63 in 10.0 mi SSW 16.1 mph - N/A   Mostly Cloudy
4:56 AM 28.0 °F 14.9 °F 23.0 °F 81% 29.61 in 10.0 mi SW 19.6 mph - N/A   Scattered Clouds
5:56 AM 28.0 °F 18.6 °F 23.0 °F 81% 29.65 in 10.0 mi SSE 10.4 mph - N/A   Overcast
6:07 AM 28.4 °F 20.4 °F 23.0 °F 80% 29.64 in 10.0 mi SSW 8.1 mph - N/A   Overcast
6:56 AM 28.0 °F 18.6 °F 23.0 °F 81% 29.66 in 10.0 mi South 10.4 mph - N/A   Overcast
7:40 AM 26.6 °F 15.7 °F 23.0 °F 86% 29.66 in 10.0 mi South 12.7 mph - N/A   Overcast
7:56 AM 27.1 °F 16.4 °F 23.0 °F 84% 29.67 in 8.0 mi SSE 12.7 mph - N/A   Overcast
8:23 AM 26.6 °F 15.7 °F 21.2 °F 80% 29.67 in 9.0 mi South 12.7 mph - N/A   Mostly Cloudy
8:56 AM 27.1 °F 15.9 °F 23.0 °F 84% 29.70 in 9.0 mi South 13.8 mph - N/A   Overcast
9:16 AM 28.4 °F 18.0 °F 23.0 °F 80% 29.69 in 8.0 mi South 12.7 mph - N/A   Overcast
9:39 AM 26.6 °F 15.2 °F 23.0 °F 86% 29.69 in 9.0 mi South 13.8 mph - N/A   Overcast
9:56 AM 27.1 °F 16.4 °F 23.0 °F 84% 29.71 in 10.0 mi South 12.7 mph - N/A   Mostly Cloudy
10:14 AM 26.6 °F 15.2 °F 23.0 °F 86% 29.70 in 3.0 mi South 13.8 mph - 0.00 in   Mostly Cloudy
10:56 AM 28.0 °F 17.0 °F 23.0 °F 81% 29.73 in 7.0 mi South 13.8 mph - 0.00 in   Mostly Cloudy
11:56 AM 28.0 °F 17.0 °F 23.0 °F 81% 29.71 in 9.0 mi South 13.8 mph - N/A   Mostly Cloudy
12:07 PM 28.4 °F 18.5 °F 23.0 °F 80% 29.70 in 2.5 mi South 11.5 mph - 0.00 in   Mostly Cloudy
12:21 PM 28.4 °F 18.5 °F 23.0 °F 80% 29.69 in 5.0 mi South 11.5 mph - 0.00 in   Haze
12:35 PM 28.4 °F 19.1 °F 23.0 °F 80% 29.69 in 9.0 mi South 10.4 mph - 0.00 in   Mostly Cloudy
12:56 PM 29.1 °F 18.9 °F 23.0 °F 78% 29.69 in 10.0 mi South 12.7 mph - 0.00 in   Overcast
1:14 PM 28.4 °F 19.1 °F 21.2 °F 74% 29.69 in 2.5 mi South 10.4 mph - 0.00 in   Overcast
1:21 PM 28.4 °F 19.1 °F 23.0 °F 80% 29.69 in 1.2 mi SSW 10.4 mph - 0.00 in   Overcast
1:26 PM 28.4 °F 19.1 °F 23.0 °F 80% 29.69 in 1.0 mi South 10.4 mph - 0.00 in Snow Light Snow
1:30 PM 28.4 °F 19.1 °F 23.0 °F 80% 29.69 in 1.2 mi South 10.4 mph - 0.00 in Snow Light Snow
1:37 PM 28.4 °F 18.0 °F 23.0 °F 80% 29.68 in 2.0 mi South 12.7 mph - 0.00 in Snow Light Snow
1:47 PM 28.4 °F 18.5 °F 23.0 °F 80% 29.68 in 4.0 mi SSW 11.5 mph - 0.00 in Snow Light Snow
1:56 PM 29.1 °F 20.0 °F 23.0 °F 78% 29.68 in 4.0 mi South 10.4 mph - 0.00 in   Haze
2:44 PM 28.4 °F 19.7 °F 23.0 °F 80% 29.67 in 9.0 mi South 9.2 mph - 0.00 in   Overcast
2:56 PM 29.1 °F 21.3 °F 23.0 °F 78% 29.67 in 7.0 mi South 8.1 mph - 0.00 in   Overcast
3:56 PM 29.1 °F 25.4 °F 22.1 °F 75% 29.68 in 9.0 mi WNW 3.5 mph - 0.00 in   Overcast
4:56 PM 27.1 °F 20.7 °F 24.1 °F 88% 29.70 in 4.0 mi South 5.8 mph - 0.00 in Snow Light Snow
5:45 PM 26.6 °F 20.0 °F 23.0 °F 86% 29.70 in 8.0 mi ESE 5.8 mph - 0.00 in   Overcast
5:56 PM 26.1 °F 19.4 °F 23.0 °F 88% 29.70 in 9.0 mi SE 5.8 mph - 0.00 in   Overcast
6:17 PM 26.6 °F 17.5 °F 21.2 °F 80% 29.70 in 10.0 mi SE 9.2 mph - N/A   Overcast
6:37 PM 26.6 °F 17.5 °F 21.2 °F 80% 29.70 in 10.0 mi SSE 9.2 mph - N/A   Overcast
6:44 PM 26.6 °F 18.2 °F 21.2 °F 80% 29.70 in 5.0 mi SSE 8.1 mph - 0.00 in   Mostly Cloudy
6:56 PM 26.1 °F 16.8 °F 23.0 °F 88% 29.71 in 5.0 mi SSE 9.2 mph - 0.00 in Snow Light Snow
7:11 PM 26.6 °F 17.5 °F 23.0 °F 86% 29.70 in 2.5 mi SSE 9.2 mph - 0.00 in Snow Light Snow
7:14 PM 26.6 °F 16.8 °F 23.0 °F 86% 29.70 in 1.8 mi SSE 10.4 mph - 0.00 in Snow Light Snow
7:17 PM 26.6 °F 16.8 °F 23.0 °F 86% 29.70 in 1.2 mi South 10.4 mph - 0.00 in Snow Light Snow
7:21 PM 26.6 °F 18.2 °F 23.0 °F 86% 29.70 in 0.8 mi SSE 8.1 mph - 0.00 in Snow Light Snow
7:26 PM 26.6 °F 19.1 °F 24.8 °F 93% 29.70 in 0.5 mi SSE 6.9 mph - 0.00 in Fog , Snow Light Snow
7:56 PM 25.2 °F 18.3 °F 24.1 °F 96% 29.71 in 1.0 mi South 5.8 mph - 0.01 in Snow Light Snow
8:00 PM 26.6 °F 18.2 °F 24.8 °F 93% 29.69 in 1.5 mi South 8.1 mph - 0.00 in Snow Light Snow
8:09 PM 24.8 °F 16.1 °F 24.8 °F 100% 29.70 in 2.0 mi South 8.1 mph - 0.00 in Snow Light Snow
8:27 PM 24.8 °F 14.6 °F 24.8 °F 100% 29.70 in 3.0 mi South 10.4 mph - 0.00 in Snow Light Snow
8:37 PM 24.8 °F 15.3 °F 24.8 °F 100% 29.70 in 4.0 mi South 9.2 mph - 0.00 in Snow Light Snow
8:56 PM 25.2 °F 16.5 °F 24.1 °F 96% 29.72 in 5.0 mi SSE 8.1 mph - 0.00 in Snow Light Snow
9:16 PM 24.8 °F 19.1 °F 23.0 °F 93% 29.71 in 4.0 mi SSE 4.6 mph - 0.00 in Snow Light Snow
9:28 PM 24.8 °F 16.9 °F 21.2 °F 86% 29.70 in 6.0 mi South 6.9 mph - 0.00 in Snow Light Snow
9:56 PM 25.2 °F 16.5 °F 21.0 °F 84% 29.73 in 10.0 mi SSE 8.1 mph - 0.00 in   Overcast
10:20 PM 24.8 °F 16.1 °F 21.2 °F 86% 29.71 in 9.0 mi South 8.1 mph - N/A   Overcast
10:49 PM 24.8 °F 15.3 °F 21.2 °F 86% 29.70 in 4.0 mi SSE 9.2 mph - 0.00 in Snow Light Snow
10:56 PM 25.2 °F 15.1 °F 21.0 °F 84% 29.71 in 3.0 mi SSE 10.4 mph - 0.00 in Snow Light Snow
11:56 PM 25.2 °F 13.9 °F 21.0 °F 84% 29.71 in 9.0 mi South 12.7 mph - 0.00 in   Overcast